Weather History for Montpelier, VT

Change the Weather History Date:

Tuesday, March 26, 2013

  Actual Average Record
Temperature  
Mean Temperature 33 °F 33 °F  
Max Temperature 39 °F 43 °F 65 °F (1986)
Min Temperature 26 °F 23 °F -12 °F (1960)
Degree Days  
Heating Degree Days 32 32  
Month to date heating degree days 922 964  
Since 1 July heating degree days 6471 6872  
Cooling Degree Days 0 0  
Month to date cooling degree days 0 0  
Year to date cooling degree days 0 0  
Moisture  
Dew Point 22 °F    
Average Humidity 61    
Maximum Humidity 81    
Minimum Humidity 40    
Precipitation  
Precipitation T in 0.08 in 1.00 in (2002)
Month to date precipitation 0.77 1.98  
Year to date precipitation 3.01 6.47  
Sea Level Pressure  
Sea Level Pressure 29.75 in    
Wind  
Wind Speed 7 mph (NNW)    
Max Wind Speed 17 mph    
Max Gust Speed 21 mph    
Visibility 10 miles    
Events      
T = Trace of Precipitation, MM = Missing Value Source: NWS Daily Summary

Daily Weather History Graph

Daily Weather History Graph

Search for Another Location

Airport:

Trip Planner

Search our weather history database for the weather conditions in past years. The results will help you decide how hot, cold, wet, or windy it might be!

Date:

Astronomy

Mar. 26, 2013 Rise Set
Actual Time 6:42 AM EDT 7:10 PM EDT
Civil Twilight 6:13 AM EDT 7:39 PM EDT
Nautical Twilight 5:38 AM EDT 8:13 PM EDT
Astronomical Twilight 5:03 AM EDT 8:49 PM EDT
Moon 6:44 PM EDT (3/26) 5:57 AM EDT (3/26)
Length of Visible Light 13h 26m
Length of Day
12h 28m
Waxing Gibbous, 99% of the Moon is Illuminated
Mar 26
Waxing Gibbous
Mar 27
Full
Apr 3
Last Quarter
Apr 10
New
Apr 18
First Quarter

Hourly Weather History & Observations

Time (EDT) Temp. Windchill Dew Point Humidity Pressure Visibility Wind Dir Wind Speed Gust Speed Precip Events Conditions
12:51 AM 33.1 °F - 25.0 °F 72% 29.66 in 10.0 mi Calm Calm - N/A   Overcast
1:51 AM 32.0 °F 28.7 °F 25.0 °F 75% 29.66 in 10.0 mi NNW 3.5 mph - N/A   Overcast
2:51 AM 32.0 °F 27.5 °F 25.0 °F 75% 29.66 in 10.0 mi NNW 4.6 mph - N/A   Overcast
3:51 AM 30.9 °F 22.8 °F 24.1 °F 76% 29.67 in 10.0 mi North 9.2 mph - N/A   Overcast
4:22 AM 30.2 °F 24.3 °F 24.8 °F 80% 29.63 in 10.0 mi NNW 5.8 mph - N/A   Overcast
4:51 AM 30.2 °F 23.4 °F 24.8 °F 80% 29.64 in 10.0 mi North 6.9 mph - N/A   Overcast
5:51 AM 30.0 °F - 25.0 °F 82% 29.70 in 10.0 mi Calm Calm - 0.00 in   Overcast
6:51 AM 30.0 °F 25.2 °F 23.0 °F 75% 29.72 in 10.0 mi NNW 4.6 mph - N/A   Overcast
7:51 AM 30.2 °F 23.4 °F 23.0 °F 75% 29.69 in 10.0 mi NNW 6.9 mph - N/A   Overcast
8:51 AM 32.0 °F 23.6 °F 23.0 °F 69% 29.75 in 10.0 mi North 10.4 mph - N/A   Clear
9:51 AM 34.0 °F 27.2 °F 21.0 °F 59% 29.75 in 10.0 mi North 8.1 mph - N/A   Clear
10:51 AM 35.1 °F 27.4 °F 19.0 °F 52% 29.77 in 10.0 mi NNE 10.4 mph - N/A   Overcast
11:51 AM 35.1 °F 27.4 °F 19.9 °F 54% 29.78 in 10.0 mi NNE 10.4 mph - N/A   Overcast
12:51 PM 37.0 °F 31.6 °F 18.0 °F 46% 29.77 in 10.0 mi Variable 6.9 mph - N/A   Mostly Cloudy
1:51 PM 37.9 °F 31.5 °F 19.0 °F 47% 29.78 in 10.0 mi North 9.2 mph - N/A   Mostly Cloudy
2:51 PM 37.9 °F 32.1 °F 18.0 °F 45% 29.77 in 10.0 mi NNW 8.1 mph - N/A   Mostly Cloudy
3:51 PM 39.2 °F 32.0 °F 17.6 °F 42% 29.74 in 10.0 mi WNW 11.5 mph 18.4 mph N/A   Scattered Clouds
4:51 PM 39.0 °F 32.3 °F 19.9 °F 46% 29.78 in 10.0 mi WNW 10.4 mph - N/A   Mostly Cloudy
5:51 PM 37.9 °F 30.5 °F 21.9 °F 53% 29.80 in 10.0 mi NNW 11.5 mph - N/A   Clear
6:51 PM 37.0 °F 32.4 °F 21.9 °F 54% 29.82 in 10.0 mi NNW 5.8 mph - N/A   Partly Cloudy
7:51 PM 34.0 °F 31.0 °F 19.9 °F 56% 29.83 in 10.0 mi WNW 3.5 mph - N/A   Clear
8:51 PM 33.1 °F 28.7 °F 19.9 °F 59% 29.84 in 10.0 mi WNW 4.6 mph - N/A   Clear
9:51 PM 28.4 °F - 19.4 °F 69% 29.81 in 10.0 mi Calm Calm - N/A   Clear
10:51 PM 26.6 °F 21.2 °F 21.2 °F 80% 29.81 in 10.0 mi South 4.6 mph - N/A   Overcast
11:51 PM 28.9 °F 25.2 °F 21.9 °F 75% 29.85 in 10.0 mi South 3.5 mph - N/A   Mostly Cloudy